Flight Information

DEPARTURE
SAN DIEGO, CA
Elevation:
427
Runways:
10L/28R - 4598x150 - ASPH-G
10R/28L - 3401x60 - ASPH-G
5/23 - 3400x75 - ASPH-TRTD-E
H1 - 48x48 - ASPH-G
Active PE Departure:
28R - 28L
Current PE ATIS:
C
Altimeter:
30.06
Remarks:
ATIS:
126.9 858-277-3075
Clearance Delivery:
123.725
Ground:
118.22
Tower:
119.2 125.7
DESTINATION
,
Elevation:
TPA:
1000 (est.)


6752.3 NM74° True-13° Var61° HDG

Flight Plan:
(click to file on line)

1. Type
2. Aircraft Identification
3. Aircraft Type / Special Equipment
4. True Airspeed
kts
5. Departure Airport
(ICAO code)
6. Arriving Airport
(ICAO code)
7. Cruising Altitude
ft
8. Alternate Airport
(ICAO code)
9. Route of Flight
10. Remarks


00:00:00 Departure ATIS: Destination ATIS:

Clearance Limit:
Route:
Altitude: Expect in minutes
Frequency:
Transponder: (7500 Hijack / 7600 Lost Comms / 7700 Emergency)


KMYF 211753Z 31005KT 10SM CLR 34/12 A3006 RMK AO2 SLP173 T03390122 10339 20178 50003
Time: 2021-09-21T17:53:00Z
1632249027
Winds: 310 @ 5 kts
Visibility: 10.0 sm
Clouds (AGL): CLR
Temperature: 33.9 C
Dew Point: 12.2 C
Pressure: 30.059055 in Hgbr


Notes:

Data extracted from FAA Digital Chart Supplement. Effective: 0901Z Thursday, AUG 12, 2021 to 0901Z Thursday, OCT 7, 2021
Current ATIS data is provided courtisy of PilotEdge.